VHAGEDORN Weather Reports


Display with metric or nautical units.
time (UTC)temp
F
wind
direction
speed
MPH
gust
MPH
rain 1hr
in
rain 24hr
in
rain mn
in
humidity
%
barometer
mb
20260507171515 59 312 3.0 8.0 0.00 0.00 0.00 30 1013.4
20260507170013 61 331 5.0 10.0 0.00 0.00 0.00 28 1013.5
20260507164507 60 319 3.0 9.0 0.00 0.00 0.00 30 1013.5
20260507163119 58 273 3.0 10.0 0.00 0.00 0.00 30 1013.8
20260507041514 38 103 0.0 2.0 0.00 0.00 0.00 51 1014.9
20260507040051 39 107 0.0 2.0 0.00 0.00 0.00 48 1015.0
20260507034518 41 102 0.0 1.0 0.00 0.00 0.00 45 1015.1
20260507033044 42 102 1.0 2.0 0.00 0.00 0.00 44 1015.2
20260507031519 44 104 0.0 1.0 0.00 0.00 0.00 41 1015.1
20260507030053 45 104 0.0 2.0 0.00 0.00 0.00 38 1015.1
20260507024514 47 104 1.0 2.0 0.00 0.00 0.00 35 1014.9
20260507023056 49 104 0.0 2.0 0.00 0.00 0.00 33 1014.9
20260507021522 51 109 0.0 2.0 0.00 0.00 0.00 29 1014.9
20260507020056 52 121 0.0 1.0 0.00 0.00 0.00 26 1014.9
20260507014543 53 121 0.0 0.0 0.00 0.00 0.00 25 1014.8
20260507013054 53 98 0.0 3.0 0.00 0.00 0.00 25 1014.9
20260507011536 53 39 0.0 2.0 0.00 0.00 0.00 24 1015.1
20260507010017 55 111 0.0 4.0 0.00 0.00 0.00 22 1015.2
20260507004600 55 107 2.0 4.0 0.00 0.00 0.00 21 1015.3
20260507003039 55 79 1.0 7.0 0.00 0.00 0.00 24 1015.5
20260507001540 56 144 3.0 12.0 0.00 0.00 0.00 22 1015.8
20260507000046 57 128 2.0 6.0 0.00 0.00 0.00 22 1015.8
20260506234541 56 28 2.0 12.0 0.00 0.00 0.00 23 1016.3
20260506233044 57 128 1.0 11.0 0.00 0.00 0.00 22 1016.2
20260506231544 57 89 2.0 6.0 0.00 0.00 0.00 22 1016.2
20260506230041 58 103 4.0 8.0 0.00 0.00 0.00 22 1016.3
20260506224537 58 86 3.0 12.0 0.00 0.00 0.00 22 1016.4
20260506223011 58 64 2.0 12.0 0.00 0.00 0.00 22 1016.7
20260506221542 58 180 2.0 8.0 0.00 0.00 0.00 23 1017.0
20260506220045 59 108 3.0 10.0 0.00 0.00 0.00 24 1017.3
20260506214559 59 86 2.0 9.0 0.00 0.00 0.00 25 1017.4
20260506213017 59 111 3.0 10.0 0.00 0.00 0.00 22 1017.9
20260506211552 58 111 3.0 10.0 0.00 0.00 0.00 23 1018.4
20260506210037 57 55 4.0 9.0 0.00 0.00 0.00 23 1018.5
20260506204604 57 111 3.0 10.0 0.00 0.00 0.00 24 1018.8
20260506203052 56 111 3.0 12.0 0.00 0.00 0.00 25 1019.0
20260506201523 56 62 2.0 9.0 0.00 0.00 0.00 25 1019.3
20260506200059 54 122 2.0 10.0 0.00 0.00 0.00 27 1019.6
20260506200007 54 165 2.0 10.0 0.00 0.00 0.00 28 1019.5
20260506194604 55 59 2.0 13.0 0.00 0.00 0.00 28 1019.9
20260506193059 53 65 1.0 11.0 0.00 0.00 0.00 28 1020.1
20260506191552 54 149 1.0 7.0 0.00 0.00 0.00 28 1020.2
20260506190022 53 90 2.0 7.0 0.00 0.00 0.00 31 1020.6
20260506184509 53 87 2.0 10.0 0.00 0.00 0.00 30 1020.7
20260506183038 53 107 2.0 7.0 0.00 0.00 0.00 28 1021.2
20260506181518 52 145 2.0 8.0 0.00 0.00 0.00 30 1021.3